DateTimeUTC,F1_A11,F1_S11,BsB_S11,BsG_S11,BsR_S11,BbsB_S11,BbsG_S11,BbsR_S11,BaB_A11,BaG_A11,BaR_A11,Tu_S11,T_S11,Uu_S11,U_S11,P_S11,T1_A11
2021-10-09T18:00:00Z,00000200,21000000,,,,,,,-000.16,-000.07,-000.10,18.1,25.4,,00.0,0669.1,31.0
2021-10-09T18:01:00Z,00000200,21000000,,,,,,,0000.04,-000.05,-000.04,18.1,25.4,,00.0,0669.1,31.0
2021-10-09T18:02:00Z,00000200,21000000,,,,,,,0000.41,0000.32,-000.03,18.1,25.4,,00.0,0669.1,31.1
2021-10-09T18:03:00Z,00000200,61000000,,,,,,,-000.13,0000.25,-000.14,18.2,25.4,,00.0,0669.1,31.1
2021-10-09T18:04:00Z,00000200,41000000,0000.63,0000.62,0000.32,0000.43,0000.32,0000.36,0000.40,0000.56,0000.80,18.6,25.3,,00.0,0670.1,31.1
2021-10-09T18:05:00Z,00000200,01000000,0000.68,0000.30,0000.60,0000.67,0000.44,0000.24,0000.40,-000.12,0000.37,18.7,25.3,,00.0,0670.1,31.1
2021-10-09T18:06:00Z,00000200,01000000,0001.36,0000.72,0000.33,0000.23,0000.09,0000.63,0000.26,0000.12,-000.27,18.8,25.3,,00.0,0670.2,31.1
2021-10-09T18:07:00Z,00000200,01000000,0000.66,0000.55,0000.69,0000.31,0000.02,0000.20,-000.30,0000.01,0000.06,18.8,25.3,,00.0,0670.2,31.1
2021-10-09T18:08:00Z,00000200,01000000,0001.44,0001.01,0000.61,0000.35,0000.13,0000.25,-000.04,-000.36,-000.18,18.8,25.3,,00.0,0670.1,31.1
2021-10-09T18:09:00Z,00000200,01000000,0000.50,0000.47,0000.31,-000.13,0000.20,0000.23,0000.10,0000.00,-000.04,18.7,25.3,,00.0,0670.1,31.1
2021-10-09T18:10:00Z,00000200,01000000,0001.41,0000.52,0000.22,0000.72,-000.09,0000.11,-000.06,0000.08,0000.30,18.6,25.3,,00.0,0670.1,31.0
2021-10-09T18:11:00Z,00000200,01000000,0001.65,0000.58,0000.30,0000.24,0000.17,0000.11,0000.14,0000.09,-000.28,18.6,25.2,,00.0,0670.1,31.0
2021-10-09T18:12:00Z,00000200,01000000,0001.16,0001.03,0000.45,0000.62,0000.41,0000.43,0000.52,0000.23,0000.18,18.5,25.2,,00.0,0670.1,31.0
2021-10-09T18:13:00Z,00000200,01000000,0001.23,0000.61,0000.24,0000.14,0000.32,0000.35,0000.02,0000.67,0000.48,18.4,25.1,,00.0,0670.1,31.0
2021-10-09T18:14:00Z,00000200,01000000,0001.13,0000.79,0000.50,0001.00,0000.33,0000.17,0000.75,0000.29,0000.37,18.4,25.1,,00.0,0670.1,31.0
2021-10-09T18:15:00Z,00000200,01000000,0001.02,0000.85,0000.27,0000.43,0000.31,-000.07,0000.26,0000.64,0000.24,18.4,25.1,,00.0,0670.2,31.0
2021-10-09T18:16:00Z,00000200,01000000,-000.40,0000.30,0000.61,0000.37,0000.05,0000.11,0000.46,-000.02,0000.02,18.5,25.1,,00.0,0670.2,31.0
2021-10-09T18:17:00Z,00000200,01000000,0000.97,0000.72,0000.63,0000.26,0000.30,0000.29,0000.43,0000.09,0000.70,18.5,25.2,,00.0,0670.2,31.0
2021-10-09T18:18:00Z,00000200,01000000,0001.07,0000.59,0000.53,0000.54,0000.30,0000.00,-000.04,0000.51,0000.21,18.6,25.2,,00.0,0670.2,31.1
2021-10-09T18:19:00Z,00000200,01000000,0000.61,0000.55,0000.56,-000.18,0000.16,0000.14,0000.29,0000.16,-000.12,18.7,25.2,,00.0,0670.2,31.1
2021-10-09T18:20:00Z,00000200,01000000,0000.98,0000.53,0000.55,0000.30,0000.25,0000.11,0000.34,0000.16,0000.25,18.7,25.3,,00.0,0670.2,31.1
2021-10-09T18:21:00Z,00000200,01000000,0001.52,0000.53,0000.40,0000.62,0000.04,0000.41,-000.24,-000.17,-000.46,18.7,25.3,,00.0,0670.2,31.1
2021-10-09T18:22:00Z,00000200,01000000,0000.58,0000.73,0000.83,-000.03,0000.37,0000.51,0000.12,0000.14,0000.04,18.6,25.2,,00.0,0670.2,31.1
2021-10-09T18:23:00Z,00000200,01000000,0001.07,0000.58,0000.63,0001.05,0000.30,0000.48,0000.18,-000.08,0000.52,18.6,25.2,,00.0,0670.2,31.0
2021-10-09T18:24:00Z,00000200,01000000,0000.54,0000.63,0000.36,0000.97,0000.21,0000.31,0000.20,0000.00,-000.05,18.5,25.2,,00.0,0670.2,31.0
2021-10-09T18:25:00Z,00000200,01000000,0001.17,0001.01,0000.57,0000.59,0000.34,0000.04,0000.19,0000.60,0000.13,18.4,25.1,,00.0,0670.2,31.0
2021-10-09T18:26:00Z,00000200,01000000,0000.84,0000.52,0000.38,0000.25,0000.23,0000.05,0000.14,-000.38,-000.03,18.3,25.1,,00.0,0670.2,31.0
2021-10-09T18:27:00Z,00000200,01000000,0000.46,0000.58,0000.51,0000.94,0000.43,0000.17,0000.49,0000.45,-000.11,18.3,25.0,,00.0,0670.2,31.0
2021-10-09T18:28:00Z,00000200,01000000,0000.91,0000.56,0000.56,0000.31,0000.05,-000.12,0000.26,0000.40,0000.80,18.2,25.0,,00.0,0670.2,31.0
2021-10-09T18:29:00Z,00000200,01000000,0000.54,0000.86,0000.39,0000.07,0000.29,-000.24,0000.03,0000.36,-000.11,18.2,25.0,,00.0,0670.2,31.0
2021-10-09T18:30:00Z,00000200,01000000,0001.03,0000.56,0000.32,0000.65,0000.14,0000.14,0000.66,0000.32,0000.37,18.2,25.0,,00.0,0670.2,31.0
2021-10-09T18:31:00Z,00000200,01000000,0000.95,0000.57,0000.66,-000.03,0000.26,0000.15,0000.48,0000.44,0000.39,18.3,25.0,,00.0,0670.2,31.0
2021-10-09T18:32:00Z,00000200,01000000,0001.21,0000.51,0000.77,0000.57,0000.27,0000.40,-000.04,-000.05,0000.33,18.4,25.0,,00.0,0670.2,31.0
2021-10-09T18:33:00Z,00000200,01000000,0000.64,0000.46,0000.45,0000.37,0000.17,0000.41,0000.54,0000.65,0000.03,18.4,25.0,,00.0,0670.2,31.0
2021-10-09T18:34:00Z,00000200,01000000,0001.34,0000.58,0000.36,0000.58,0000.16,0000.11,0000.01,-000.05,0000.10,18.4,25.1,,00.0,0670.2,31.0
2021-10-09T18:35:00Z,00000200,01000000,0001.09,0000.63,0000.47,0000.43,0000.55,0000.08,0000.13,-000.02,-000.11,18.5,25.1,,00.0,0670.3,31.1
2021-10-09T18:36:00Z,00000200,01000000,0001.51,0001.03,0000.70,0000.02,0000.05,0000.36,0000.58,0000.15,0000.57,18.5,25.1,,00.0,0670.2,31.0
2021-10-09T18:37:00Z,00000200,01000000,0000.32,0000.46,0000.12,0000.38,0000.30,-000.28,0000.13,0000.41,-000.12,18.4,25.1,,00.0,0670.2,31.0
2021-10-09T18:38:00Z,00000200,01000000,0000.31,0000.51,0000.51,-000.07,0000.33,0000.13,0000.42,0000.49,0000.31,18.3,25.0,,00.0,0670.2,31.0
2021-10-09T18:39:00Z,00000200,01000000,0001.05,0000.67,0000.58,0000.67,0000.26,0000.13,-000.24,-000.04,-000.00,18.3,25.0,,00.0,0670.3,31.0
2021-10-09T18:40:00Z,00000200,01000000,0001.21,0000.23,0000.83,0000.99,0000.14,0000.27,0000.61,0000.23,0000.29,18.2,25.0,,00.0,0670.3,31.0
2021-10-09T18:41:00Z,00000200,01000000,0000.77,0000.64,0000.72,0000.58,0000.07,0000.30,-000.06,0000.48,0000.16,18.1,24.9,,00.0,0670.2,31.0
2021-10-09T18:42:00Z,00000200,01000000,0001.89,0000.19,0000.39,0000.87,0000.18,-000.01,0000.58,-000.09,0000.26,18.1,24.9,,00.0,0670.3,31.0
2021-10-09T18:43:00Z,00000200,01000000,0000.84,0000.81,0000.51,0001.07,0000.13,0000.02,0000.09,0000.55,0000.20,18.0,24.8,,00.0,0670.3,31.0
2021-10-09T18:44:00Z,00000200,01000000,0001.58,0000.55,0000.47,0000.23,0000.28,0000.08,0000.53,0000.41,0000.05,18.0,24.8,,00.0,0670.3,31.0
2021-10-09T18:45:00Z,00000200,01000000,0000.72,0000.65,0000.43,0000.09,0000.07,0000.12,0000.34,0000.38,0000.66,18.0,24.8,,00.0,0670.3,31.0
2021-10-09T18:46:00Z,00000200,01000000,0000.91,0000.73,0000.65,0000.43,0000.16,0000.11,0000.38,0000.03,-000.02,18.1,24.8,,00.0,0670.3,31.0
2021-10-09T18:47:00Z,00000200,01000000,0000.45,0000.55,0000.49,0000.34,0000.31,0000.30,0000.04,0000.44,0000.24,18.1,24.9,,00.0,0670.3,31.0
2021-10-09T18:48:00Z,00000200,01000000,0000.83,0000.73,0000.85,0000.84,-000.12,-000.12,0000.21,0000.14,0000.09,18.2,24.9,,00.0,0670.3,31.0
2021-10-09T18:49:00Z,00000200,01000000,0000.87,0000.88,0000.79,0000.82,0000.31,0000.31,0000.37,0000.24,0000.16,18.3,24.9,,00.0,0670.3,31.0
2021-10-09T18:50:00Z,00000200,01000000,0000.71,0000.13,0000.38,0000.76,0000.40,0000.19,0000.30,-000.07,0000.06,18.3,24.9,,00.0,0670.3,31.0
2021-10-09T18:51:00Z,00000200,01000000,0000.65,0000.47,0000.59,0000.20,0000.19,0000.24,-000.12,0000.45,-000.26,18.3,25.0,,00.0,0670.3,31.0
2021-10-09T18:52:00Z,00000200,01000000,0000.98,0000.95,0000.67,0000.29,0000.57,0000.41,-000.29,-000.28,0000.17,18.3,25.0,,00.0,0670.3,31.0
2021-10-09T18:53:00Z,00000200,01000000,0000.71,0000.85,0000.47,0000.12,0000.37,0000.13,0000.50,0000.04,0000.39,18.2,24.9,,00.0,0670.3,31.0
2021-10-09T18:54:00Z,00000200,01010000,0000.85,0000.95,0000.66,0000.92,0000.31,-000.02,0000.11,0000.03,-000.17,18.1,24.9,,00.0,0670.2,31.0
2021-10-09T18:55:00Z,00000200,01000000,0001.81,0000.75,0000.66,0000.93,0000.18,0000.29,0000.08,-000.15,-000.15,18.1,24.8,,00.0,0670.3,31.0
2021-10-09T18:56:00Z,00000200,01000000,0000.62,0000.98,0000.63,0000.24,0000.20,0000.22,0000.12,0000.50,0000.25,18.0,24.8,,00.0,0670.3,31.0
2021-10-09T18:57:00Z,00000200,41000000,,,,,,,0000.27,-000.15,-000.01,18.0,24.8,,00.0,0670.2,30.9
2021-10-09T18:58:00Z,00000200,61000000,,,,,,,0000.25,0000.48,0000.10,17.5,24.9,,00.0,0669.3,30.9
2021-10-09T18:59:00Z,00000200,21000000,,,,,,,-000.21,0000.20,-000.04,17.5,25.0,,00.0,0669.2,31.0
